DELTA 1 DEB, 10870

Orbit data source: Space-Track

DELTA 1 DEB, 10870 is space debris in SSO originally from a launch on Thu, 29 Jul 1976 UTC launched from the Air Force Western Test Range (AFWTR). Debris objects in space refer to the collection of defunct objects orbiting the Earth. Examples of debris include non-operational satellites, rocket bodies, and fragments generated from explosions, collisions, or faulty payload assembly.

Loading next visibility...
Identifier
10870, 1976-077CY
Orbit
SSO
Country
Flag of USUS
Related business
Manufacturer
Unknown
Mission
Spacecraft
Bus & Motor
Unknown
Mass
Unknown
Launch date (UTC)
1976-07-29 (50 years ago)
Launch vehicle
Unknown
Launch site
Air Force Western Test Range (AFWTR)
Object type
Payload
Rocket body
Debris
Shape & HBR
Unknown shape, 0.2 m
Radar Cross Section
Small (<0.1 m²)

Expand to show TLE details & history
Last TLE update: 11 hours ago

TLE from 11 hours ago
0 DELTA 1 DEB
1 10870U 76077CY  26118.72750411 -.00000222  00000-0 -11885-2 0  9991
2 10870 101.7347 101.9915 0009236 302.7114 230.6544 12.48871229257681
Epoch: 2026-04-28T17:27Z
TLE epoch observation values (Epoch: 2026-04-28T17:27:36.355Z)
Latitude
6.50708°
Longitude
164.74233°
Altitude
1,475.785 km
Speed
7.124 km/s
True Right ascension
18h 53m 22s
True Declination
6° 28' 19"
Sunlit
Object was in daylight at epoch
Visualization orbit readout
Latitude
Unknown
Longitude
Unknown
Altitude
Unknown
Speed
Unknown
Apparent Right ascension
Unknown
Apparent Declination
Unknown
Sunlit
N/A
Visualization observer readout
Local Sidereal Time
12:07:06
Azimuth
Unknown
Elevation
Unknown
Doppler factor
Unknown
Orbital elements
Apogee altitude
1,474.013 km
Perigee altitude
1,459.522 km
Semi-major axis
7,844.904 km
Eccentricity
0.00092
Inclination
101.7347°
RAAN
101.9915°
Arg. of periapsis
302.7114°
True anomaly
230.57261°
Mean anomaly
230.6544°
Eccentric anomaly
230.6135°
Mean motion
3.12365 °/min
Orbital period
115.25 mins
BSTAR
-0.0011885
Loading maneuver chart data...
Computing Atmospheric mass density...
Loading historical data...
Loading historical data...
Loading historical data...
Loading historical data...
Loading historical data...
Loading historical data...
Loading historical data...

Documentation

Showing up to 5 results
|